Simultaneous Nadir Overpasses (SNOs) Predictions

Prediction of SNOs between AQUA and NPP Satellite Orbit:

Table of predicted SNOs for the next 14.0 days since TLE Epoch: 2/3/2012
Index Date (AQUA) Time (AQUA) Lat,Lon (AQUA) SZA (AQUA ) Date (NPP) Time (NPP) Lat,Lon (NPP) SZA (NPP ) Distance(km) Time Diff (sec)
1 02/04/2012 14:05:06 -75.90, 27.45 66.05 02/04/2012 14:03:55 -75.90, 27.46 65.99 0.41 71
2 02/04/2012 14:54:12 76.85,-161.78 112.85 02/04/2012 14:54:18 76.85,-161.79 112.85 0.37 6
3 02/07/2012 06:21:34 -76.12, 143.99 67.08 02/07/2012 06:20:48 -76.11, 143.92 67.03 1.78 46
4 02/07/2012 07:10:40 77.06, -45.15 111.82 02/07/2012 07:11:11 77.05, -45.24 111.81 2.22 31
5 02/09/2012 22:37:51 -76.79, -97.90 68.68 02/09/2012 22:37:30 -76.80, -97.81 68.69 2.59 21
6 02/09/2012 23:26:59 77.60, 72.90 110.33 02/09/2012 23:27:55 77.61, 73.00 110.26 2.67 56
7 02/12/2012 14:05:11 76.01,-152.24 111.38 02/12/2012 14:04:00 76.02,-152.22 111.44 0.55 71
8 02/12/2012 14:54:16 -77.09, 19.09 69.90 02/12/2012 14:54:22 -77.10, 19.16 69.92 1.86 6
9 02/15/2012 06:21:34 76.40, -35.12 110.05 02/15/2012 06:20:51 76.40, -35.11 110.08 0.27 43




NCC Satellite Simultaneous Nadir Overpasses (SNOs) Prediction Service
